Location: La Junie
(44.7428°N, 2.1773°E)
Time: 07:57:59
(UTC+00:00)

Cosmos 2026 Rocket - Pass Details

Date: 15 May 2026
Orbit: 939 x 999 km, 82.9° (Epoch: 5 June)

Event Time Altitude Azimuth Distance (km) Brightness Sun altitude
Rises 22:30:48 0° 348° (NNW) 3,730 8.4 -23.8°
Reaches altitude 10° 22:33:22 10° 345° (NNW) 2,778 7.5 -24.0°
Maximum altitude 22:39:38 61° 267° (W) 1,127 4.3 -24.4°
Enters shadow 22:41:40 42° 209° (SSW) 1,397 4.5 -24.5°
